Location: Lecco
(45.8566°N, 9.3977°E)
Time: 07:22:41
(UTC+02:00)

Altair - Pass Details

Date: 17 August 2020
Orbit: 1501 x 1682 km, 47.2° (Epoch: 25 September)

Event Time Altitude Azimuth Distance (km) Brightness Sun altitude
Rises 00:03:04 0° 187° (S) 4,875 - -27.9°
Reaches altitude 10° 00:07:14 10° 173° (S) 3,866 - -28.1°
Maximum altitude 00:13:59 21° 129° (SE) 3,025 - -28.6°
Exits shadow 00:18:15 16° 97° (E) 3,352 9.0 -28.8°
Drops below altitude 10° 00:20:35 10° 84° (E) 3,778 9.4 -28.9°
Sets 00:24:33 0° 70° (ENE) 4,735 10.1 -29.2°
